"2009-07-05 00:00:00",1034222,2.615,308.5,15.13,1.22,14.56,105.8302,14.2,15.46,83.2,0,110.5,13.29,15.00,270.5
"2009-07-05 00:00:30",1034223,1.854,340.6,17.31,1.432,14.53,105.8308,14.2,15.44,83.7,0,110.5,13.29,15.00,302.6
"2009-07-05 00:01:00",1034224,0.719,25.88,27.94,0.199,12.47,105.8305,14.2,15.32,83.8,0,110.5,13.33,15.00,347.9
"2009-07-05 00:01:30",1034225,0.574,27.05,24.24,0.405,12.17,105.8285,14.19,15.29,83.9,0,110.5,13.33,15.00,349.0
"2009-07-05 00:02:00",1034226,2.553,62.1,5.556,0.186,13.33,105.8273,14.19,15.3,83.8,0,110.5,13.33,14.99,24.1
"2009-07-05 00:02:30",1034227,3.017,70.17,2.999,0.067,13.79,105.8312,14.2,15.26,82.5,0,110.5,13.33,15.00,32.2
"2009-07-05 00:03:00",1034228,3.17,68.86,7.25,0.265,13.96,105.8255,14.19,15.23,79.67,0,110.5,13.33,14.99,30.9
"2009-07-05 00:03:30",1034229,2.67,67.81,5.6,0.171,14.22,105.8207,14.17,15.2,77.51,0,110.5,13.33,14.98,29.8
"2009-07-05 00:04:00",1034230,3.025,79.19,3.328,0.301,14.49,105.8065,14.14,15.16,75.76,0,110.5,13.33,14.94,41.2
"2009-07-05 00:04:30",1034231,2.041,67.6,5.834,0.322,14.31,105.7993,14.12,15.15,74.8,0,110.5,13.33,14.92,29.6
"2009-07-05 00:05:00",1034232,2.202,78.5,7.654,0.186,14.57,105.797,14.11,15.16,74.53,0,110.5,13.33,14.91,40.5
"2009-07-05 00:05:30",1034233,2.254,79.2,6.31,0.534,14.75,105.7979,14.12,15.15,74.41,0,110.5,13.33,14.92,41.2
"2009-07-05 00:06:00",1034234,2.559,72.5,7.338,0.753,15.11,105.7976,14.11,15.15,74.1,0,110.5,13.33,14.92,34.5
"2009-07-05 00:06:30",1034235,3.247,73.75,5.5,0.454,15.6,105.7997,14.12,15.16,73.43,0,110.5,13.32,14.92,35.8
"2009-07-05 00:07:00",1034236,3.676,75.6,0.863,0.031,16.13,105.7985,14.12,15.13,72.03,0,110.5,13.32,14.92,37.6
"2009-07-05 00:07:30",1034237,3.597,74.85,0.577,0.032,16.19,105.7976,14.11,15.12,70.66,0,110.5,13.32,14.92,36.8
"2009-07-05 00:08:00",1034238,3.683,74.49,0.487,0.079,16.18,105.8006,14.12,15.12,69.85,0,110.5,13.32,14.92,36.5
"2009-07-05 00:08:30",1034239,4.098,75.97,0.185,0.121,16.19,105.8079,14.14,15.12,69.33,0,110.5,13.32,14.94,38.0
"2009-07-05 00:09:00",1034240,4.286,76.75,0.667,0.061,16.25,105.824,14.18,15.14,69.01,0,110.5,13.32,14.98,38.8
"2009-07-05 00:09:30",1034241,3.964,76.1,0.471,0.071,16.2,105.8312,14.2,15.15,69.04,0,110.5,13.32,15.00,38.1
"2009-07-05 00:10:00",1034242,3.884,75.92,0,0.032,16.21,105.8365,14.21,15.16,69.16,0,110.5,13.33,15.02,37.9
"2009-07-05 00:10:30",1034243,3.934,76.53,0.587,0.049,16.18,105.8353,14.21,15.16,69.12,0,110.5,13.33,15.01,38.5
"2009-07-05 00:11:00",1034244,3.842,75.26,0.625,0.04,16.22,105.8368,14.21,15.19,69.14,0,110.5,13.33,15.02,37.3
"2009-07-05 00:11:30",1034245,3.821,74.52,0.909,0.067,16.25,105.845,14.24,15.2,69.27,0,110.5,13.33,15.04,36.5
"2009-07-05 00:12:00",1034246,4.043,73.69,0.917,0.061,16.1,105.8639,14.28,15.22,69.25,0,110.5,13.33,15.09,35.7
"2009-07-05 00:12:30",1034247,3.917,72.51,1.017,0.08,16.16,105.8745,14.31,15.23,69.28,0,110.5,13.33,15.11,34.5
"2009-07-05 00:13:00",1034248,3.821,71.78,0.945,0.046,16.22,105.8763,14.32,15.26,69.35,0,110.5,13.33,15.12,33.8
"2009-07-05 00:13:30",1034249,3.743,72.58,0.867,0.082,16.27,105.876,14.32,15.27,69.21,0,110.5,13.33,15.12,34.6
"2009-07-05 00:14:00",1034250,3.696,72.08,0.977,0.035,16.28,105.8819,14.33,15.3,69.25,0,110.5,13.33,15.13,34.1
"2009-07-05 00:14:30",1034251,3.443,69.61,0.517,0.097,16.12,105.9004,14.38,15.31,69.28,0,110.5,13.33,15.18,31.6
"2009-07-05 00:15:00",1034252,3.45,68.51,0.543,0.035,15.99,105.9118,14.41,15.32,69.38,0,110.5,13.33,15.21,30.5
"2009-07-05 00:15:30",1034253,3.503,66.45,1.423,0.031,16.04,105.9149,14.41,15.34,69.22,0,110.5,13.33,15.22,28.4
"2009-07-05 00:16:00",1034254,3.557,64.28,0.492,0.03,16.01,105.9164,14.42,15.35,68.86,0,110.5,13.33,15.22,26.3
"2009-07-05 00:16:30",1034255,3.495,64.14,0.515,0.035,16.03,105.9167,14.42,15.36,68.33,0,110.5,13.33,15.22,26.1
"2009-07-05 00:17:00",1034256,3.462,62.68,0.792,0.031,16.03,105.9195,14.43,15.38,67.93,0,110.5,13.33,15.23,24.7
"2009-07-05 00:17:30",1034257,3.536,58.9,1.181,0.036,16.11,105.9415,14.48,15.39,67.81,0,110.5,13.33,15.29,20.9
"2009-07-05 00:18:00",1034258,3.613,56.52,0.56,0.04,16.14,105.95,14.5,15.41,67.85,0,110.5,13.34,15.31,18.5
"2009-07-05 00:18:30",1034259,3.64,55.24,0.501,0,16.05,105.9505,14.51,15.43,67.71,0,110.5,13.34,15.31,17.2
"2009-07-05 00:19:00",1034260,3.704,52.27,0.936,0.04,16.21,105.9511,14.51,15.46,67.4,0,110.5,13.34,15.31,14.3
"2009-07-05 00:19:30",1034261,3.873,51.85,0.455,0.053,15.97,105.9522,14.51,15.47,67.08,0,110.5,13.34,15.31,13.8
"2009-07-05 00:20:00",1034262,3.96,51.78,0.744,0.033,15.95,105.9601,14.53,15.47,66.88,0,110.5,13.34,15.33,13.8
"2009-07-05 00:20:30",1034263,3.924,53.85,0.548,0.033,16.05,105.9717,14.56,15.49,66.79,0,110.5,13.34,15.36,15.8
"2009-07-05 00:21:00",1034264,3.898,54.68,0.513,0.026,16.1,105.983,14.59,15.5,66.76,0,110.5,13.34,15.39,16.7
"2009-07-05 00:21:30",1034265,3.828,54.82,0.577,0.033,16,105.9852,14.59,15.52,66.81,0,110.5,13.34,15.40,16.8
"2009-07-05 00:22:00",1034266,3.741,55.69,0.739,0.041,15.93,105.9858,14.6,15.54,66.9,0,110.5,13.33,15.40,17.7
"2009-07-05 00:22:30",1034267,3.591,56.82,0.734,0.066,15.9,105.9858,14.6,15.54,67.29,0,110.5,13.33,15.40,18.8
"2009-07-05 00:23:00",1034268,3.519,56.24,0.909,0.068,15.97,105.9858,14.6,15.57,67.92,0,110.5,13.33,15.40,18.2
"2009-07-05 00:23:30",1034269,3.47,54.39,0.771,0.11,16.04,105.9858,14.6,15.57,67.89,0,110.5,13.33,15.40,16.4
"2009-07-05 00:24:00",1034270,3.218,52.85,1.04,0.088,15.86,105.9883,14.6,15.57,67.38,0,110.5,13.33,15.41,14.8
"2009-07-05 00:24:30",1034271,3.174,49.42,1.142,0.089,16.03,106.001,14.64,15.59,67.18,0,110.5,13.33,15.44,11.4
"2009-07-05 00:25:00",1034272,3.192,49.05,0.849,0.05,16.1,106.0089,14.66,15.61,66.98,0,110.5,13.33,15.46,11.0
"2009-07-05 00:25:30",1034273,3.17,49.12,0.978,0.056,16.07,106.0112,14.66,15.6,66.78,0,110.5,13.33,15.46,11.1
"2009-07-05 00:26:00",1034274,3.199,50.3,0.639,0.051,15.97,106.012,14.66,15.61,66.74,0,110.5,13.33,15.47,12.3
"2009-07-05 00:26:30",1034275,3.151,47.8,0.942,0.058,16.21,106.0165,14.68,15.63,66.7,0,110.5,13.33,15.48,9.8
"2009-07-05 00:27:00",1034276,2.968,48.58,0.858,0.074,15.98,106.0196,14.68,15.61,66.58,0,110.5,13.33,15.49,10.6
"2009-07-05 00:27:30",1034277,2.717,48.53,1.765,0.134,15.84,106.0196,14.68,15.62,66.56,0,110.5,13.33,15.49,10.5
"2009-07-05 00:28:00",1034278,1.942,46.46,5.461,0.41,15.86,106.0196,14.68,15.64,66.69,0,110.5,13.34,15.49,8.5
"2009-07-05 00:28:30",1034279,1.829,38.99,11.01,0.312,15.83,106.0196,14.68,15.65,67.16,0,110.5,13.34,15.49,1.0
"2009-07-05 00:29:00",1034280,2.273,45.6,10.07,0.41,15.76,106.0196,14.68,15.65,67.93,0,110.5,13.34,15.49,7.6
"2009-07-05 00:29:30",1034281,3.079,49.76,1.185,0.047,15.99,106.0196,14.68,15.66,67.95,0,110.5,13.34,15.49,11.8
"2009-07-05 00:30:00",1034282,3.526,49.23,0.66,0.135,16.07,106.0196,14.68,15.67,67.12,0,110.5,13.34,15.49,11.2
"2009-07-05 00:30:30",1034283,3.804,49.92,0.804,0.053,15.94,106.0196,14.68,15.66,66.8,0,110.5,13.34,15.49,11.9
"2009-07-05 00:31:00",1034284,3.917,51.23,0.449,0.04,15.86,106.0196,14.68,15.66,66.63,0,110.5,13.34,15.49,13.2
"2009-07-05 00:31:30",1034285,3.94,52.92,1.062,0.033,15.96,106.0196,14.68,15.66,66.59,0,110.5,13.34,15.49,14.9
"2009-07-05 00:32:00",1034286,3.886,53.91,0.516,0.032,16.07,106.0196,14.68,15.67,66.59,0,110.5,13.34,15.49,15.9
"2009-07-05 00:32:30",1034287,3.843,54.86,0.547,0.034,16.14,106.0196,14.68,15.66,66.62,0,110.5,13.34,15.49,16.9
"2009-07-05 00:33:00",1034288,3.76,55.35,0.311,0.032,16.03,106.0196,14.68,15.65,66.71,0,110.5,13.34,15.49,17.3
"2009-07-05 00:33:30",1034289,3.804,55.81,0.343,0.043,16,106.0196,14.68,15.66,66.73,0,110.5,13.34,15.49,17.8
"2009-07-05 00:34:00",1034290,3.888,57.13,0.66,0.066,15.97,106.0196,14.68,15.65,66.79,0,110.5,13.34,15.49,19.1
"2009-07-05 00:34:30",1034291,3.968,58.27,0.502,0.039,15.92,106.0196,14.68,15.67,66.88,0,110.5,13.34,15.49,20.3
"2009-07-05 00:35:00",1034292,4.009,58.48,0.599,0.061,15.96,106.0196,14.68,15.67,66.9,0,110.5,13.34,15.49,20.5
"2009-07-05 00:35:30",1034293,4.266,59.44,0.53,0.083,16.06,106.0196,14.68,15.66,66.92,0,110.5,13.34,15.49,21.4
"2009-07-05 00:36:00",1034294,4.087,59.23,0.812,0.094,15.94,106.0196,14.68,15.67,66.91,0,110.5,13.34,15.49,21.2
"2009-07-05 00:36:30",1034295,3.84,57.55,1.147,0.074,15.93,106.0196,14.68,15.67,66.99,0,110.5,13.34,15.49,19.5
"2009-07-05 00:37:00",1034296,3.54,57.31,1.019,0.133,16.11,106.0196,14.68,15.65,67.02,0,110.5,13.34,15.49,19.3
"2009-07-05 00:37:30",1034297,3.347,58.73,0.812,0.119,16.26,106.0196,14.68,15.66,66.9,0,110.5,13.34,15.49,20.7
"2009-07-05 00:38:00",1034298,3.885,62.23,1.284,0.096,16.07,106.0196,14.68,15.68,66.85,0,110.5,13.34,15.49,24.2
"2009-07-05 00:38:30",1034299,3.75,61.35,0.97,0.041,16.08,106.0196,14.68,15.67,67.05,0,110.5,13.33,15.49,23.3
"2009-07-05 00:39:00",1034300,3.894,62.66,0.763,0.037,16.07,106.0196,14.68,15.66,67.19,0,110.5,13.33,15.49,24.7
"2009-07-05 00:39:30",1034301,4.073,64,0.771,0.096,16.06,106.0196,14.68,15.67,67.22,0,110.5,13.33,15.49,26.0
"2009-07-05 00:40:00",1034302,4.217,65.51,0.946,0.059,16.07,106.0196,14.68,15.68,67.28,0,110.5,13.33,15.49,27.5
"2009-07-05 00:40:30",1034303,4.153,64.92,0.954,0.086,16.01,106.0196,14.68,15.68,67.44,0,110.5,13.33,15.49,26.9
"2009-07-05 00:41:00",1034304,4.064,62.97,0.391,0.108,16.12,106.0196,14.68,15.68,67.7,0,110.5,13.33,15.49,25.0
"2009-07-05 00:41:30",1034305,3.815,63.09,0.592,0.061,16.15,106.0196,14.68,15.7,67.69,0,110.5,13.33,15.49,25.1
"2009-07-05 00:42:00",1034306,3.589,62.46,1.829,0.061,16.15,106.0196,14.68,15.7,67.69,0,110.5,13.33,15.49,24.5
"2009-07-05 00:42:30",1034307,3.569,66.89,0.545,0.068,15.89,106.0196,14.68,15.68,67.65,0,110.5,13.33,15.49,28.9
"2009-07-05 00:43:00",1034308,3.545,68.59,1.575,0.062,16.03,106.0196,14.68,15.7,67.84,0,110.5,13.33,15.49,30.6
"2009-07-05 00:43:30",1034309,3.667,69.95,0.586,0.03,16.16,106.0196,14.68,15.7,67.98,0,110.5,13.34,15.49,31.9
"2009-07-05 00:44:00",1034310,3.619,73.11,1.25,0.032,16.13,106.0196,14.68,15.69,68.14,0,110.5,13.34,15.49,35.1
"2009-07-05 00:44:30",1034311,3.681,75.43,0.544,0.051,15.98,106.0196,14.68,15.71,68.23,0,110.5,13.34,15.49,37.4
"2009-07-05 00:45:00",1034312,3.756,74.89,0.477,0.04,16.03,106.0196,14.68,15.7,68.32,0,110.5,13.34,15.49,36.9
"2009-07-05 00:45:30",1034313,3.649,75.88,1.253,0.049,16.01,106.0196,14.68,15.7,68.48,0,110.5,13.34,15.49,37.9
"2009-07-05 00:46:00",1034314,3.598,79.16,0.954,0.109,16.17,106.0196,14.68,15.71,68.55,0,110.5,13.34,15.49,41.2
"2009-07-05 00:46:30",1034315,3.285,79.66,1.058,0.081,16.1,106.0196,14.68,15.71,68.54,0,110.5,13.34,15.49,41.7
"2009-07-05 00:47:00",1034316,3.079,80.9,0.816,0.121,15.98,106.0196,14.68,15.71,68.57,0,110.5,13.34,15.49,42.9
"2009-07-05 00:47:30",1034317,2.77,82.1,1.942,0.096,15.97,106.0199,14.68,15.72,68.75,0,110.5,13.34,15.49,44.1
"2009-07-05 00:48:00",1034318,2.253,78.71,4.149,0.17,15.93,106.0196,14.68,15.71,69.05,0,110.5,13.34,15.49,40.7
"2009-07-05 00:48:30",1034319,1.91,79.94,3.281,0.221,15.91,106.0196,14.68,15.72,69.53,0,110.5,13.34,15.49,41.9
"2009-07-05 00:49:00",1034320,1.568,80.5,4.663,0.162,15.81,106.0196,14.68,15.72,69.94,0,110.5,13.34,15.49,42.5
"2009-07-05 00:49:30",1034321,1.376,80.8,5.392,0.118,15.84,106.0196,14.68,15.73,70.23,0,110.5,13.34,15.49,42.8
"2009-07-05 00:50:00",1034322,1.131,86.9,6.334,0.102,15.84,106.0196,14.68,15.73,70.53,0,110.5,13.34,15.49,48.9
"2009-07-05 00:50:30",1034323,1.16,77.22,6.461,0.194,15.94,106.0196,14.68,15.78,70.64,0,110.5,13.34,15.49,39.2
"2009-07-05 00:51:00",1034324,2.209,83.5,9.05,1.318,17.98,106.0196,14.68,15.86,71,0,110.5,13.31,15.49,45.5
"2009-07-05 00:51:30",1034325,0.89,73.38,4.707,0.177,15.9,106.0196,14.68,15.79,71.2,0,110.5,13.34,15.49,35.4
"2009-07-05 00:52:00",1034326,0.628,72.44,7.268,0.111,15.47,106.0196,14.68,15.74,70.97,0,110.5,13.34,15.49,34.4
"2009-07-05 00:52:30",1034327,1.634,68.6,8.63,1.282,17.67,106.0196,14.68,15.86,71.35,0,110.5,13.31,15.49,30.6
"2009-07-05 00:53:00",1034328,0.101,43.85,24.84,0.276,15.31,106.0196,14.68,15.86,71.04,0,110.5,13.31,15.49,5.8
"2009-07-05 00:53:30",1034329,0.482,339.5,12.9,1.041,15.83,106.0196,14.68,15.9,70.92,0,110.5,13.31,15.49,301.5
"2009-07-05 00:54:00",1034330,1.235,326.7,13.08,1.25,15.27,106.0196,14.68,15.72,70.7,0,110.5,13.31,15.49,288.7
"2009-07-05 00:54:30",1034331,1.385,296.9,9.97,1.339,15.47,106.0137,14.67,15.85,70.8,0,110.5,13.31,15.47,258.9
"2009-07-05 00:55:00",1034332,0.499,274.6,7.95,0.073,13.31,106.012,14.66,15.69,71.23,0,110.5,13.34,15.47,236.6
"2009-07-05 00:55:30",1034333,0.638,275.3,8.97,0.142,12.97,106.0117,14.66,15.7,71.86,0,110.5,13.33,15.47,237.3
"2009-07-05 00:56:00",1034334,0.764,282.5,8.34,0.144,12.69,106.0095,14.66,15.68,71.91,0,110.5,13.33,15.46,244.5
"2009-07-05 00:56:30",1034335,0.897,275.1,11.44,0.073,12.77,106.0021,14.64,15.69,72.39,0,110.5,13.33,15.44,237.1
"2009-07-05 00:57:00",1034336,0.545,291,6.129,0.169,12.94,105.994,14.62,15.69,72.7,0,110.5,13.33,15.42,253.0
"2009-07-05 00:57:30",1034337,0.246,298.9,14.23,0.093,13.24,105.9864,14.6,15.69,72.55,0,110.5,13.33,15.40,260.9
"2009-07-05 00:58:00",1034338,0.017,294.4,15.94,0.073,13.47,105.9858,14.6,15.68,72.27,0,110.5,13.33,15.40,256.4
"2009-07-05 00:58:30",1034339,-0.083,320.3,59.7,0.004,13.62,105.9858,14.6,15.68,72.03,0,110.5,13.33,15.40,282.3
"2009-07-05 00:59:00",1034340,-0.067,89.1,40.93,0.033,13.84,105.9858,14.6,15.67,71.9,0,110.5,13.34,15.40,51.1
"2009-07-05 00:59:30",1034341,0.141,120,15.57,0.082,14.14,105.9858,14.6,15.65,71.74,0,110.5,13.33,15.40,82.0
"2009-07-05 01:00:00",1034342,0.257,125.7,8.94,0.085,14.32,105.9855,14.6,15.64,71.57,0,110.5,13.34,15.40,87.7
"2009-07-05 01:00:30",1034343,0.545,123.2,8.08,0.119,14.33,105.9796,14.58,15.64,71.47,0,110.5,13.34,15.38,85.2
"2009-07-05 01:01:00",1034344,0.819,126.5,1.809,0.041,14.37,105.9669,14.55,15.63,71.21,0,110.5,13.35,15.35,88.5
"2009-07-05 01:01:30",1034345,0.812,126.1,2.933,0.04,14.55,105.957,14.52,15.62,70.96,0,110.5,13.35,15.33,88.1
"2009-07-05 01:02:00",1034346,1.08,121.5,5.397,0.198,14.89,105.952,14.51,15.6,70.76,0,110.5,13.35,15.31,83.5
"2009-07-05 01:02:30",1034347,0.952,124.4,7.155,0.105,15.09,105.952,14.51,15.6,70.41,0,110.5,13.35,15.31,86.4
"2009-07-05 01:03:00",1034348,1.018,121.6,5.769,0.062,15.33,105.952,14.51,15.59,70.32,0,110.5,13.35,15.31,83.6
"2009-07-05 01:03:30",1034349,1.056,137.8,3.704,0.079,15.24,105.952,14.51,15.59,70.36,0,110.5,13.35,15.31,99.8
"2009-07-05 01:04:00",1034350,1.026,133.1,2.778,0.101,15.48,105.9503,14.51,15.56,70.61,0,110.5,13.35,15.31,95.1
"2009-07-05 01:04:30",1034351,1.234,137.5,4.11,0.108,15.5,105.9396,14.48,15.56,70.73,0,110.5,13.35,15.28,99.5
"2009-07-05 01:05:00",1034352,1.192,143.3,2.569,0.076,15.44,105.9244,14.44,15.55,70.88,0,110.5,13.35,15.24,105.3
"2009-07-05 01:05:30",1034353,1.24,140.9,2.71,0.111,15.58,105.9184,14.42,15.54,71.01,0,110.5,13.35,15.23,102.9
"2009-07-05 01:06:00",1034354,1.563,136.2,1.442,0.031,15.8,105.9182,14.42,15.54,71.07,0,110.5,13.35,15.23,98.2
"2009-07-05 01:06:30",1034355,1.656,132,3.203,0.108,15.72,105.9182,14.42,15.53,70.95,0,110.5,13.35,15.23,94.0
"2009-07-05 01:07:00",1034356,1.705,131.4,3.831,0.129,15.83,105.9182,14.42,15.52,70.72,0,110.5,13.35,15.23,93.4
"2009-07-05 01:07:30",1034357,1.905,132,4.857,0.113,15.87,105.9182,14.42,15.51,70.56,0,110.5,13.35,15.23,94.0
"2009-07-05 01:08:00",1034358,2.128,129.7,2.262,0.107,15.9,105.9176,14.42,15.5,70.39,0,110.5,13.35,15.22,91.7
"2009-07-05 01:08:30",1034359,2.145,119.6,8.6,0.148,16.04,105.912,14.41,15.49,70.24,0,110.5,13.35,15.21,81.6
"2009-07-05 01:09:00",1034360,2.096,126.3,7.577,0.125,15.98,105.9055,14.39,15.49,70.26,0,110.5,13.35,15.19,88.3
"2009-07-05 01:09:30",1034361,2.385,140.2,5.074,0.098,15.82,105.9029,14.38,15.47,70.21,0,110.5,13.35,15.19,102.2
"2009-07-05 01:10:00",1034362,2.321,140.9,3.744,0.094,15.88,105.8948,14.36,15.45,70.41,0,110.5,13.35,15.17,102.9
"2009-07-05 01:10:30",1034363,2.332,144.9,2.486,0.107,15.85,105.886,14.34,15.46,70.55,0,110.5,13.35,15.14,106.9
"2009-07-05 01:11:00",1034364,2.441,143.3,2.423,0.113,15.88,105.8852,14.34,15.45,70.82,0,110.5,13.35,15.14,105.3
"2009-07-05 01:11:30",1034365,2.46,142.4,2.674,0.236,15.97,105.8843,14.34,15.45,70.99,0,110.5,13.35,15.14,104.4
"2009-07-05 01:12:00",1034366,2.838,143.6,3.89,0.184,15.95,105.8843,14.34,15.44,71.05,0,110.5,13.35,15.14,105.6
"2009-07-05 01:12:30",1034367,2.897,148.1,2.465,0.075,15.96,105.8843,14.34,15.43,71.14,0,110.5,13.35,15.14,110.1
"2009-07-05 01:13:00",1034368,2.891,152.6,2.635,0.067,15.84,105.8843,14.34,15.44,71.16,0,110.5,13.35,15.14,114.6
"2009-07-05 01:13:30",1034369,3.071,153.2,1.307,0.12,15.82,105.8843,14.34,15.43,71.33,0,110.5,13.35,15.14,115.2
"2009-07-05 01:14:00",1034370,3.013,150.1,4.023,0.169,15.91,105.8843,14.34,15.43,71.31,0,110.5,13.35,15.14,112.1
"2009-07-05 01:14:30",1034371,3.188,156.3,1.846,0.14,15.82,105.8843,14.34,15.41,71.38,0,110.5,13.35,15.14,118.3
"2009-07-05 01:15:00",1034372,3.407,153.2,5.033,0.175,16.03,105.8843,14.34,15.43,71.6,0,110.5,13.35,15.14,115.2
"2009-07-05 01:15:30",1034373,3.302,156.2,2.629,0.128,15.96,105.8835,14.33,15.41,71.24,0,110.5,13.35,15.14,118.2
"2009-07-05 01:16:00",1034374,3.589,148.9,2.283,0.117,16.11,105.8829,14.33,15.4,71.33,0,110.5,13.35,15.13,110.9
"2009-07-05 01:16:30",1034375,3.241,150.6,3.138,0.129,15.97,105.8784,14.32,15.4,70.73,0,110.5,13.35,15.12,112.6
"2009-07-05 01:17:00",1034376,3.41,151.2,1.54,0.139,15.99,105.8759,14.31,15.39,71.05,0,110.5,13.35,15.12,113.2
"2009-07-05 01:17:30",1034377,3.322,150.7,1.593,0.126,16.03,105.8762,14.32,15.38,71.14,0,110.5,13.35,15.12,112.7
"2009-07-05 01:18:00",1034378,3.234,152,2.375,0.11,15.98,105.8753,14.31,15.38,70.99,0,110.5,13.35,15.12,114.0
"2009-07-05 01:18:30",1034379,3.189,159.4,1.999,0.056,16.03,105.8739,14.31,15.38,71.37,0,110.5,13.35,15.11,121.4
"2009-07-05 01:19:00",1034380,3.156,165.4,1.481,0.066,15.96,105.8691,14.3,15.39,71.97,0,110.5,13.35,15.10,127.4
"2009-07-05 01:19:30",1034381,3.946,165,11.41,1.373,17.85,105.8635,14.28,15.52,72.64,0,110.4,13.32,15.09,127.0
"2009-07-05 01:20:00",1034382,3.112,157,11.27,1.162,17.14,105.8556,14.26,15.53,72.39,0,110.5,13.32,15.06,119.0
"2009-07-05 01:20:30",1034383,2.542,155.2,11.22,0.251,15.56,105.8528,14.26,15.37,71.98,0,110.4,13.35,15.06,117.2
"2009-07-05 01:21:00",1034384,2.035,146.1,12.35,0.196,15.46,105.8508,14.25,15.36,71.93,0,110.4,13.35,15.05,108.1
"2009-07-05 01:21:30",1034385,2.271,145.7,12.11,0.403,15.52,105.8508,14.25,15.36,71.9,0,110.4,13.35,15.05,107.7
"2009-07-05 01:22:00",1034386,2.106,146.2,5.324,0.148,15.59,105.8505,14.25,15.36,71.9,0,110.4,13.35,15.05,108.2
"2009-07-05 01:22:30",1034387,2.069,145.2,8.29,0.179,15.67,105.8514,14.25,15.35,71.94,0,110.5,13.35,15.05,107.2
"2009-07-05 01:23:00",1034388,2.606,159.9,7.549,0.223,15.43,105.8528,14.26,15.35,72.08,0,110.5,13.35,15.06,121.9
"2009-07-05 01:23:30",1034389,2.568,160.2,3.601,0.231,15.46,105.8556,14.26,15.34,72.48,0,110.5,13.35,15.06,122.2
"2009-07-05 01:24:00",1034390,2.259,152.8,8.49,0.295,15.8,105.8564,14.27,15.35,72.78,0,110.4,13.35,15.07,114.8
"2009-07-05 01:24:30",1034391,1.483,140.6,17.65,0.695,15.95,105.8649,14.29,15.35,72.98,0,110.4,13.35,15.09,102.6
"2009-07-05 01:25:00",1034392,0.959,128.5,22.7,0.193,16.01,105.8722,14.31,15.36,72.89,0,110.4,13.35,15.11,90.5
"2009-07-05 01:25:30",1034393,1.606,186.7,14.57,0.552,15.97,105.8759,14.31,15.34,72.73,0,110.4,13.35,15.12,148.7
"2009-07-05 01:26:00",1034394,2.701,168.3,8.04,0.319,15.8,105.8773,14.32,15.35,72.86,0,110.5,13.36,15.12,130.3
"2009-07-05 01:26:30",1034395,2.903,171.7,6.932,0.174,15.69,105.8818,14.33,15.36,73.28,0,110.5,13.36,15.13,133.7
"2009-07-05 01:27:00",1034396,2.979,163.4,7.773,0.373,15.95,105.8843,14.34,15.38,73.63,0,110.4,13.36,15.14,125.4
"2009-07-05 01:27:30",1034397,2.901,170.4,6.175,0.268,15.84,105.8849,14.34,15.36,73.43,0,110.4,13.36,15.14,132.4
"2009-07-05 01:28:00",1034398,3.45,171.4,3.243,0.31,15.86,105.8849,14.34,15.37,73.57,0,110.4,13.36,15.14,133.4
"2009-07-05 01:28:30",1034399,3.314,163.9,3.484,0.244,15.97,105.8849,14.34,15.36,73.4,0,110.4,13.35,15.14,125.9
"2009-07-05 01:29:00",1034400,2.981,172.4,4.82,0.325,15.99,105.8852,14.34,15.37,73.29,0,110.4,13.35,15.14,134.4
"2009-07-05 01:29:30",1034401,2.997,156.8,14.19,0.277,16.2,105.8855,14.34,15.38,73,0,110.4,13.35,15.14,118.8
"2009-07-05 01:30:00",1034402,2.954,151.5,11.42,0.375,16.32,105.8849,14.34,15.36,73.28,0,110.4,13.35,15.14,113.5
"2009-07-05 01:30:30",1034403,2.923,170.1,6.229,0.386,16.09,105.8849,14.34,15.37,73.14,0,110.4,13.35,15.14,132.1
"2009-07-05 01:31:00",1034404,3.684,163.6,7.161,0.327,16.14,105.8852,14.34,15.38,73.21,0,110.4,13.35,15.14,125.6
"2009-07-05 01:31:30",1034405,3.837,172.8,6.128,0.408,16.02,105.8846,14.34,15.37,73.29,0,110.4,13.35,15.14,134.8
"2009-07-05 01:32:00",1034406,3.656,180.4,4.669,0.262,15.89,105.8855,14.34,15.38,73.65,0,110.4,13.35,15.14,142.4
"2009-07-05 01:32:30",1034407,3.906,185,6.37,0.288,15.74,105.8873,14.34,15.39,74.15,0,110.4,13.35,15.15,147.0
"2009-07-05 01:33:00",1034408,3.49,192.1,3.805,0.74,16.17,105.8867,14.34,15.51,75.08,0,110.5,13.31,15.14,154.1
"2009-07-05 01:33:30",1034409,5.206,198.3,7.026,1.171,19.19,105.8882,14.35,15.67,76.08,0,110.4,13.31,15.15,160.3
"2009-07-05 01:34:00",1034410,5.774,198.9,5.321,0.933,19.4,105.8888,14.35,15.66,76.71,0,110.5,13.31,15.15,160.9
"2009-07-05 01:34:30",1034411,4.398,188.3,6.873,1.293,17.66,105.8909,14.35,15.62,76.81,0,110.4,13.31,15.16,150.3
"2009-07-05 01:35:00",1034412,3.229,182.8,6.542,0.312,13.73,105.8918,14.36,15.4,75.16,0,110.5,13.35,15.16,144.8
"2009-07-05 01:35:30",1034413,2.947,169.7,7.768,0.212,13.52,105.8897,14.35,15.39,74.52,0,110.5,13.35,15.15,131.7
"2009-07-05 01:36:00",1034414,2.135,169.5,13.02,0.324,13.64,105.8903,14.35,15.37,74.13,0,110.5,13.35,15.15,131.5
"2009-07-05 01:36:30",1034415,3.25,192.2,5.829,0.651,13.96,105.8924,14.36,15.36,73.71,0,110.5,13.35,15.16,154.2
"2009-07-05 01:37:00",1034416,4.094,207.1,7.326,0.451,14.12,105.8915,14.35,15.37,74.07,0,110.5,13.35,15.16,169.1
"2009-07-05 01:37:30",1034417,4.586,207.2,3.048,0.239,13.99,105.8951,14.36,15.38,74.67,0,110.5,13.35,15.17,169.2
"2009-07-05 01:38:00",1034418,4.378,211.9,1.664,0.058,14.2,105.8948,14.36,15.38,75.96,0,110.5,13.35,15.17,173.9
"2009-07-05 01:38:30",1034419,4.458,210.6,1.878,0.098,14.6,105.8936,14.36,15.39,77.61,0,110.5,13.35,15.16,172.6
"2009-07-05 01:39:00",1034420,4.399,201.2,1.716,0.074,15.32,105.8727,14.31,15.39,77.94,0,110.5,13.35,15.11,163.2
"2009-07-05 01:39:30",1034421,4.334,190.6,4.256,0.245,15.73,105.8613,14.28,15.35,75.54,0,110.5,13.36,15.08,152.6
"2009-07-05 01:40:00",1034422,3.914,189.5,7.034,0.254,16.02,105.8651,14.29,15.3,74.99,0,110.5,13.36,15.09,151.5
"2009-07-05 01:40:30",1034423,3.065,182.3,8.41,0.332,16.19,105.8633,14.28,15.28,74.6,0,110.5,13.36,15.08,144.3
"2009-07-05 01:41:00",1034424,3.187,179.6,4.669,0.465,16.18,105.8669,14.29,15.27,74.35,0,110.4,13.36,15.09,141.6
"2009-07-05 01:41:30",1034425,2.793,182.7,13.84,0.429,16.11,105.8651,14.29,15.27,74.34,0,110.5,13.36,15.09,144.7
"2009-07-05 01:42:00",1034426,3.161,186,9.04,0.225,15.9,105.8678,14.29,15.28,74.79,0,110.5,13.36,15.10,148.0
"2009-07-05 01:42:30",1034427,3.156,204.1,7.582,0.244,16.09,105.8699,14.3,15.28,75.38,0,110.5,13.36,15.10,166.1
"2009-07-05 01:43:00",1034428,3.066,199.6,6.467,0.267,16.21,105.8702,14.3,15.29,75.54,0,110.5,13.36,15.10,161.6
"2009-07-05 01:43:30",1034429,3.545,199.5,5.148,0.198,16.28,105.8699,14.3,15.3,75.24,0,110.4,13.36,15.10,161.5
"2009-07-05 01:44:00",1034430,3.985,207.7,4.417,0.589,16.17,105.8717,14.3,15.3,74.95,0,110.5,13.36,15.11,169.7
"2009-07-05 01:44:30",1034431,5.749,215.6,6.7,1.139,17.36,105.8696,14.3,15.44,76.5,0,110.4,13.32,15.10,177.6
"2009-07-05 01:45:00",1034432,6.343,219.5,8.06,1.401,17.91,105.8722,14.31,15.45,78.42,0,110.5,13.32,15.11,181.5
"2009-07-05 01:45:30",1034433,7.55,226.9,4.286,1.009,20.04,105.8809,14.33,15.69,79.89,0,110.4,13.31,15.13,188.9
"2009-07-05 01:46:00",1034434,5.635,222.9,7.768,1.312,17.04,105.8862,14.34,15.46,80.2,0,110.5,13.31,15.14,184.9
"2009-07-05 01:46:30",1034435,3.855,215.3,6.042,0.499,14.13,105.8783,14.32,15.42,79.57,0,110.5,13.35,15.12,177.3
"2009-07-05 01:47:00",1034436,3.096,202.3,7.332,0.324,13.78,105.8756,14.31,15.34,78.75,0,110.4,13.34,15.12,164.3